�������r�C�����j�^�v���󋵏��
Date,Time,5�C6���@���p�r�C��,����,����(m/s)
2021/12/16,00:00,3.8,���k��,6.3
2021/12/16,00:10,4.0,���k��,5.2
2021/12/16,00:20,3.9,���k��,3.8
2021/12/16,00:30,4.0,�k��,2.3
2021/12/16,00:40,3.9,���k��,2.3
2021/12/16,00:50,4.1,�k��,4.3
2021/12/16,01:00,3.9,�k��,4.3
2021/12/16,01:10,3.9,�k��,4.2
2021/12/16,01:20,3.9,�k��,5.0
2021/12/16,01:30,3.9,�k��,4.9
2021/12/16,01:40,4.0,�k��,4.5
2021/12/16,01:50,3.9,�k��,3.1
2021/12/16,02:00,4.1,�k��,4.4
2021/12/16,02:10,4.1,���k��,5.7
2021/12/16,02:20,4.0,��,6.0
2021/12/16,02:30,3.9,��,6.4
2021/12/16,02:40,4.1,��,6.2
2021/12/16,02:50,4.0,��,5.3
2021/12/16,03:00,3.9,���쐼,4.6
2021/12/16,03:10,3.7,��,4.2
2021/12/16,03:20,3.9,��,5.0
2021/12/16,03:30,4.0,���쐼,4.7
2021/12/16,03:40,3.9,�쐼,4.6
2021/12/16,03:50,4.0,��쐼,2.9
2021/12/16,04:00,4.0,��쐼,5.7
2021/12/16,04:10,4.0,��,5.9
2021/12/16,04:20,3.8,��,5.9
2021/12/16,04:30,4.0,��,6.3
2021/12/16,04:40,3.8,��,5.2
2021/12/16,04:50,3.9,��,3.6
2021/12/16,05:00,4.0,�쐼,1.7
2021/12/16,05:10,3.9,�쓌,0.6
2021/12/16,05:20,4.1,��쓌,2.3
2021/12/16,05:30,3.9,��,2.6
2021/12/16,05:40,4.0,��,3.2
2021/12/16,05:50,3.9,��쓌,3.3
2021/12/16,06:00,4.0,��쓌,2.9
2021/12/16,06:10,4.0,��쓌,2.3
2021/12/16,06:20,4.2,��쓌,2.3
2021/12/16,06:30,3.7,��쓌,2.0
2021/12/16,06:40,3.9,��쓌,2.6
2021/12/16,06:50,4.0,��,4.1
2021/12/16,07:00,3.9,��,4.9
2021/12/16,07:10,3.8,��,5.6
2021/12/16,07:20,3.8,��,5.4
2021/12/16,07:30,4.1,��,6.5
2021/12/16,07:40,4.0,��,6.5
2021/12/16,07:50,3.9,��,6.8
2021/12/16,08:00,3.9,��,6.1
2021/12/16,08:10,4.0,��,5.7
2021/12/16,08:20,3.8,��쐼,5.0
2021/12/16,08:30,3.8,��,5.9
2021/12/16,08:40,4.0,��쐼,7.1
2021/12/16,08:50,4.0,��쐼,5.9
2021/12/16,09:00,3.9,��쐼,3.8
2021/12/16,09:10,3.9,��쐼,2.9
2021/12/16,09:20,4.1,��쐼,1.5
2021/12/16,09:30,4.0,��쐼,1.2
2021/12/16,09:40,4.1,��,2.6
2021/12/16,09:50,3.8,��,2.3
2021/12/16,10:00,3.9,��,2.6
2021/12/16,10:10,4.0,��쓌,3.5
2021/12/16,10:20,4.0,��,3.6
2021/12/16,10:30,4.0,��쐼,4.4
2021/12/16,10:40,3.9,��쐼,4.7
2021/12/16,10:50,4.0,��쐼,5.6
2021/12/16,11:00,4.0,��쐼,5.7
2021/12/16,11:10,4.0,��쐼,5.4
2021/12/16,11:20,4.0,��쐼,4.3
2021/12/16,11:30,3.9,��쐼,4.1
2021/12/16,11:40,4.1,��,4.2
2021/12/16,11:50,4.0,��,5.4
2021/12/16,12:00,3.9,��,5.5
2021/12/16,12:10,4.1,��쐼,5.2
2021/12/16,12:20,4.0,��,4.8
2021/12/16,12:30,4.0,��,4.7
2021/12/16,12:40,4.0,��,5.1
2021/12/16,12:50,3.9,��,6.2
2021/12/16,13:00,4.0,��,5.6
2021/12/16,13:10,4.0,��,6.7
2021/12/16,13:20,3.9,��,7.7
2021/12/16,13:30,3.9,��,8.5
2021/12/16,13:40,4.1,��,9.6
2021/12/16,13:50,3.8,��,9.2
2021/12/16,14:00,4.0,��,8.0
2021/12/16,14:10,4.1,��,6.7
2021/12/16,14:20,4.2,��,6.6
2021/12/16,14:30,3.9,��,6.7
2021/12/16,14:40,3.9,��,6.9
2021/12/16,14:50,4.1,��,7.5
2021/12/16,15:00,3.9,��,7.4
2021/12/16,15:10,3.9,��,8.6
2021/12/16,15:20,3.9,��,8.3
2021/12/16,15:30,4.1,��,7.7
2021/12/16,15:40,4.0,��,7.9
2021/12/16,15:50,4.0,��,7.8
2021/12/16,16:00,4.2,��,6.6
2021/12/16,16:10,4.2,��,7.3
2021/12/16,16:20,3.9,��쐼,7.4
2021/12/16,16:30,4.0,��쐼,7.7
2021/12/16,16:40,4.0,��쐼,6.0
2021/12/16,16:50,4.0,��쐼,6.2
2021/12/16,17:00,4.0,��쐼,7.0
2021/12/16,17:10,3.9,��쐼,6.8
2021/12/16,17:20,4.1,��쐼,5.5
2021/12/16,17:30,4.1,��쐼,5.5
2021/12/16,17:40,4.1,�쐼,5.9
2021/12/16,17:50,4.0,�쐼,6.0
2021/12/16,18:00,4.0,�쐼,7.7
2021/12/16,18:10,3.9,�쐼,7.6
2021/12/16,18:20,4.0,��쐼,7.8
2021/12/16,18:30,4.0,�쐼,6.9
2021/12/16,18:40,3.9,�쐼,8.9
2021/12/16,18:50,3.8,���쐼,7.3
2021/12/16,19:00,4.0,�쐼,6.3
2021/12/16,19:10,3.9,�쐼,5.5
2021/12/16,19:20,3.8,��쐼,4.8
2021/12/16,19:30,3.8,��쐼,3.1
2021/12/16,19:40,3.9,�쐼,3.3
2021/12/16,19:50,3.9,��,1.2
2021/12/16,20:00,4.0,���k��,2.0
2021/12/16,20:10,4.1,���k��,2.0
2021/12/16,20:20,4.0,���k��,1.7
2021/12/16,20:30,4.0,�k��,0.8
2021/12/16,20:40,4.1,�k��,1.5
2021/12/16,20:50,4.2,�쐼,2.3
2021/12/16,21:00,4.1,���쐼,3.9
2021/12/16,21:10,4.0,���쐼,5.2
2021/12/16,21:20,3.9,�쐼,2.5
2021/12/16,21:30,4.0,��쐼,1.4
2021/12/16,21:40,3.9,��쐼,2.0
2021/12/16,21:50,4.1,�쐼,2.9
2021/12/16,22:00,4.1,��,3.8
2021/12/16,22:10,3.9,��,3.1
2021/12/16,22:20,3.9,�쐼,1.7
2021/12/16,22:30,4.0,��쐼,1.2
2021/12/16,22:40,4.0,�k��,0.9
2021/12/16,22:50,4.0,�k�k��,2.6
2021/12/16,23:00,3.8,�k��,4.5
2021/12/16,23:10,4.0,�k��,5.6
2021/12/16,23:20,3.8,�k��,4.9
2021/12/16,23:30,3.9,�k��,4.3
2021/12/16,23:40,3.9,�k�k��,3.2
2021/12/16,23:50,4.1,�k,2.8
